Time,TemperatureF,DewpointF,PressureIn,WindDirection,WindDirectionDegrees,WindSpeedMPH,WindSpeedGustMPH,Humidity,HourlyPrecipIn,Conditions,Clouds,dailyrainin,SoftwareType,DateUTC
2013-05-19 00:02:00,44.2,36.5,30.20,South,180,1.0,2.0,74,0.00,,,0.00,meteohub,2013-05-19 07:02:00,
2013-05-19 00:07:00,43.9,36.1,30.20,South,180,1.0,2.0,74,0.00,,,0.00,meteohub,2013-05-19 07:07:00,
2013-05-19 00:12:00,43.5,35.8,30.20,South,180,1.0,2.0,74,0.00,,,0.00,meteohub,2013-05-19 07:12:00,
2013-05-19 00:17:00,43.2,35.8,30.20,SW,225,2.0,2.0,75,0.00,,,0.00,meteohub,2013-05-19 07:17:00,
2013-05-19 00:22:00,42.8,35.4,30.21,South,180,2.0,2.0,75,0.00,,,0.00,meteohub,2013-05-19 07:22:00,
2013-05-19 00:27:00,42.6,36.0,30.21,South,180,1.0,2.0,77,0.00,,,0.00,meteohub,2013-05-19 07:27:00,
2013-05-19 00:32:00,42.3,36.0,30.21,South,180,1.0,2.0,78,0.00,,,0.00,meteohub,2013-05-19 07:32:00,
2013-05-19 00:37:00,42.1,35.8,30.21,South,180,1.0,2.0,78,0.00,,,0.00,meteohub,2013-05-19 07:37:00,
2013-05-19 00:42:00,41.7,35.4,30.21,East,90,0.0,2.0,78,0.00,,,0.00,meteohub,2013-05-19 07:42:00,
2013-05-19 00:47:00,41.4,35.4,30.21,SW,225,2.0,2.0,79,0.00,,,0.00,meteohub,2013-05-19 07:47:00,
2013-05-19 00:52:00,41.2,35.4,30.21,South,180,2.0,2.0,80,0.00,,,0.00,meteohub,2013-05-19 07:52:00,
2013-05-19 00:57:00,41.4,35.6,30.21,SW,225,2.0,2.0,80,0.00,,,0.00,meteohub,2013-05-19 07:57:00,
2013-05-19 01:02:00,41.4,35.6,30.21,South,180,2.0,2.0,80,0.00,,,0.00,meteohub,2013-05-19 08:02:00,
2013-05-19 01:07:00,41.2,35.8,30.21,SW,225,2.0,2.0,81,0.00,,,0.00,meteohub,2013-05-19 08:07:00,
2013-05-19 01:12:00,41.0,35.6,30.21,SW,225,0.0,2.0,81,0.00,,,0.00,meteohub,2013-05-19 08:12:00,
2013-05-19 01:17:00,40.8,35.8,30.21,SW,225,2.0,2.0,82,0.00,,,0.00,meteohub,2013-05-19 08:17:00,
2013-05-19 01:22:00,40.5,35.4,30.22,West,270,1.0,2.0,82,0.00,,,0.00,meteohub,2013-05-19 08:22:00,
2013-05-19 01:27:00,40.3,35.2,30.21,SW,225,1.0,2.0,82,0.00,,,0.00,meteohub,2013-05-19 08:27:00,
2013-05-19 01:32:00,40.1,35.4,30.21,SW,225,2.0,2.0,83,0.00,,,0.00,meteohub,2013-05-19 08:32:00,
2013-05-19 01:37:00,39.9,35.2,30.22,South,180,1.0,2.0,83,0.00,,,0.00,meteohub,2013-05-19 08:37:00,
2013-05-19 01:42:00,39.7,35.1,30.22,South,180,2.0,2.0,83,0.00,,,0.00,meteohub,2013-05-19 08:42:00,
2013-05-19 01:47:00,39.4,34.7,30.21,SE,135,2.0,2.0,83,0.00,,,0.00,meteohub,2013-05-19 08:47:00,
2013-05-19 01:52:00,39.4,34.9,30.22,South,180,2.0,2.0,84,0.00,,,0.00,meteohub,2013-05-19 08:52:00,
2013-05-19 01:57:00,39.4,34.9,30.21,South,180,1.0,2.0,84,0.00,,,0.00,meteohub,2013-05-19 08:57:00,
2013-05-19 02:02:00,39.2,34.7,30.22,South,180,1.0,2.0,84,0.00,,,0.00,meteohub,2013-05-19 09:02:00,
2013-05-19 02:07:00,38.8,34.7,30.22,SE,135,1.0,2.0,85,0.00,,,0.00,meteohub,2013-05-19 09:07:00,
2013-05-19 02:12:00,38.7,34.5,30.22,South,180,1.0,2.0,85,0.00,,,0.00,meteohub,2013-05-19 09:12:00,
2013-05-19 02:17:00,38.5,34.7,30.22,SW,225,1.0,2.0,86,0.00,,,0.00,meteohub,2013-05-19 09:17:00,
2013-05-19 02:22:00,38.5,34.7,30.22,South,180,2.0,2.0,86,0.00,,,0.00,meteohub,2013-05-19 09:22:00,
2013-05-19 02:27:00,38.3,34.5,30.22,South,180,1.0,2.0,86,0.00,,,0.00,meteohub,2013-05-19 09:27:00,
2013-05-19 02:32:00,38.1,34.5,30.22,South,180,2.0,2.0,87,0.00,,,0.00,meteohub,2013-05-19 09:32:00,
2013-05-19 02:37:00,37.9,34.3,30.23,SW,225,2.0,2.0,87,0.00,,,0.00,meteohub,2013-05-19 09:37:00,
2013-05-19 02:42:00,37.9,34.3,30.22,SW,225,1.0,2.0,87,0.00,,,0.00,meteohub,2013-05-19 09:42:00,
2013-05-19 02:47:00,37.6,34.3,30.22,SE,135,2.0,2.0,88,0.00,,,0.00,meteohub,2013-05-19 09:47:00,
2013-05-19 02:52:00,37.6,34.3,30.22,East,90,2.0,2.0,88,0.00,,,0.00,meteohub,2013-05-19 09:52:00,
2013-05-19 02:57:00,37.6,34.3,30.22,SE,135,2.0,3.0,88,0.00,,,0.00,meteohub,2013-05-19 09:57:00,
2013-05-19 03:02:00,37.6,34.3,30.22,South,180,1.0,3.0,88,0.00,,,0.00,meteohub,2013-05-19 10:02:00,
2013-05-19 03:07:00,37.4,34.2,30.22,SE,135,2.0,3.0,88,0.00,,,0.00,meteohub,2013-05-19 10:07:00,
2013-05-19 03:12:00,37.2,32.9,30.23,South,180,2.0,2.0,84,0.00,,,0.00,meteohub,2013-05-19 10:12:00,
2013-05-19 03:17:00,37.0,32.7,30.23,South,180,2.0,2.0,84,0.00,,,0.00,meteohub,2013-05-19 10:17:00,
2013-05-19 03:22:00,36.9,32.5,30.23,SE,135,1.0,2.0,84,0.00,,,0.00,meteohub,2013-05-19 10:22:00,
2013-05-19 03:27:00,36.7,32.5,30.23,SE,135,1.0,2.0,85,0.00,,,0.00,meteohub,2013-05-19 10:27:00,
2013-05-19 03:32:00,36.5,32.4,30.23,SW,225,1.0,2.0,85,0.00,,,0.00,meteohub,2013-05-19 10:32:00,
2013-05-19 03:37:00,36.3,32.2,30.23,South,180,2.0,2.0,85,0.00,,,0.00,meteohub,2013-05-19 10:37:00,
2013-05-19 03:42:00,36.1,32.0,30.23,South,180,2.0,2.0,85,0.00,,,0.00,meteohub,2013-05-19 10:42:00,
2013-05-19 03:47:00,36.0,32.2,30.23,SW,225,1.0,2.0,86,0.00,,,0.00,meteohub,2013-05-19 10:47:00,
2013-05-19 03:52:00,36.0,32.2,30.24,SE,135,0.0,2.0,86,0.00,,,0.00,meteohub,2013-05-19 10:52:00,
2013-05-19 03:57:00,35.8,32.0,30.24,South,180,1.0,2.0,86,0.00,,,0.00,meteohub,2013-05-19 10:57:00,
2013-05-19 04:02:00,35.6,31.8,30.24,SW,225,1.0,2.0,86,0.00,,,0.00,meteohub,2013-05-19 11:02:00,
2013-05-19 04:07:00,35.6,31.8,30.24,North,0,1.0,2.0,86,0.00,,,0.00,meteohub,2013-05-19 11:07:00,
2013-05-19 04:12:00,35.4,32.2,30.25,SE,135,1.0,3.0,88,0.00,,,0.00,meteohub,2013-05-19 11:12:00,
2013-05-19 04:17:00,35.6,32.4,30.25,South,180,1.0,3.0,88,0.00,,,0.00,meteohub,2013-05-19 11:17:00,
2013-05-19 04:22:00,35.6,32.4,30.25,SW,225,2.0,3.0,88,0.00,,,0.00,meteohub,2013-05-19 11:22:00,
2013-05-19 04:27:00,35.8,32.5,30.24,SE,135,2.0,2.0,88,0.00,,,0.00,meteohub,2013-05-19 11:27:00,
2013-05-19 04:32:00,35.6,32.4,30.25,SW,225,1.0,2.0,88,0.00,,,0.00,meteohub,2013-05-19 11:32:00,
2013-05-19 04:37:00,35.4,32.5,30.25,SW,225,2.0,3.0,89,0.00,,,0.00,meteohub,2013-05-19 11:37:00,
2013-05-19 04:42:00,35.4,32.5,30.25,SW,225,1.0,3.0,89,0.00,,,0.00,meteohub,2013-05-19 11:42:00,
2013-05-19 04:47:00,35.4,32.5,30.25,South,180,1.0,2.0,89,0.00,,,0.00,meteohub,2013-05-19 11:47:00,
2013-05-19 04:52:00,35.2,32.4,30.25,SW,225,2.0,2.0,89,0.00,,,0.00,meteohub,2013-05-19 11:52:00,
2013-05-19 04:57:00,35.2,32.4,30.25,SW,225,2.0,2.0,89,0.00,,,0.00,meteohub,2013-05-19 11:57:00,
2013-05-19 05:02:00,35.1,32.2,30.25,SW,225,2.0,2.0,89,0.00,,,0.00,meteohub,2013-05-19 12:02:00,
2013-05-19 05:07:00,35.1,32.2,30.25,SSW,203,2.0,3.0,89,0.00,,,0.00,meteohub,2013-05-19 12:07:00,
2013-05-19 05:12:00,34.9,32.2,30.25,South,180,1.0,3.0,90,0.00,,,0.00,meteohub,2013-05-19 12:12:00,
2013-05-19 05:17:00,34.9,32.2,30.25,SW,225,2.0,3.0,90,0.00,,,0.00,meteohub,2013-05-19 12:17:00,
2013-05-19 05:22:00,34.9,32.2,30.25,South,180,1.0,2.0,90,0.00,,,0.00,meteohub,2013-05-19 12:22:00,
2013-05-19 05:27:00,34.9,32.2,30.25,SW,225,2.0,2.0,90,0.00,,,0.00,meteohub,2013-05-19 12:27:00,
2013-05-19 05:32:00,34.9,32.2,30.25,SW,225,2.0,2.0,90,0.00,,,0.00,meteohub,2013-05-19 12:32:00,
2013-05-19 05:37:00,34.9,32.2,30.25,SE,135,2.0,2.0,90,0.00,,,0.00,meteohub,2013-05-19 12:37:00,
2013-05-19 05:42:00,34.9,32.2,30.25,SW,225,1.0,2.0,90,0.00,,,0.00,meteohub,2013-05-19 12:42:00,
2013-05-19 05:47:00,34.9,32.2,30.25,East,90,1.0,2.0,90,0.00,,,0.00,meteohub,2013-05-19 12:47:00,
2013-05-19 05:52:00,34.9,32.2,30.25,South,180,0.0,2.0,90,0.00,,,0.00,meteohub,2013-05-19 12:52:00,
2013-05-19 05:57:00,34.9,32.2,30.25,SW,225,2.0,2.0,90,0.00,,,0.00,meteohub,2013-05-19 12:57:00,
2013-05-19 06:02:00,35.1,32.4,30.25,SW,225,1.0,2.0,90,0.00,,,0.00,meteohub,2013-05-19 13:02:00,
2013-05-19 06:07:00,35.4,33.1,30.25,West,270,2.0,2.0,91,0.00,,,0.00,meteohub,2013-05-19 13:07:00,
2013-05-19 06:12:00,35.4,33.1,30.25,South,180,1.0,2.0,91,0.00,,,0.00,meteohub,2013-05-19 13:12:00,
2013-05-19 06:17:00,35.8,33.1,30.26,SW,225,1.0,2.0,90,0.00,,,0.00,meteohub,2013-05-19 13:17:00,
2013-05-19 06:22:00,36.3,33.6,30.26,South,180,2.0,2.0,90,0.00,,,0.00,meteohub,2013-05-19 13:22:00,
2013-05-19 06:27:00,36.9,34.2,30.26,North,0,2.0,2.0,90,0.00,,,0.00,meteohub,2013-05-19 13:27:00,
2013-05-19 06:32:00,37.4,35.6,30.26,SE,135,1.0,2.0,93,0.00,,,0.00,meteohub,2013-05-19 13:32:00,
2013-05-19 06:37:00,37.8,36.0,30.26,SE,135,2.0,2.0,93,0.00,,,0.00,meteohub,2013-05-19 13:37:00,
2013-05-19 06:42:00,38.1,36.3,30.26,SE,135,2.0,3.0,93,0.00,,,0.00,meteohub,2013-05-19 13:42:00,
2013-05-19 06:47:00,39.0,36.9,30.26,SE,135,2.0,4.0,92,0.00,,,0.00,meteohub,2013-05-19 13:47:00,
2013-05-19 06:52:00,39.9,37.6,30.26,East,90,3.0,4.0,91,0.00,,,0.00,meteohub,2013-05-19 13:52:00,
2013-05-19 06:57:00,40.5,37.8,30.26,SW,225,2.0,4.0,90,0.00,,,0.00,meteohub,2013-05-19 13:57:00,
2013-05-19 07:02:00,40.6,37.6,30.27,SE,135,2.0,3.0,89,0.00,,,0.00,meteohub,2013-05-19 14:02:00,
2013-05-19 07:07:00,41.2,37.4,30.27,SE,135,2.0,3.0,86,0.00,,,0.00,meteohub,2013-05-19 14:07:00,
2013-05-19 07:12:00,41.9,37.8,30.27,SE,135,2.0,4.0,85,0.00,,,0.00,meteohub,2013-05-19 14:12:00,
2013-05-19 07:17:00,42.3,37.8,30.26,East,90,3.0,4.0,84,0.00,,,0.00,meteohub,2013-05-19 14:17:00,
2013-05-19 07:22:00,43.0,37.9,30.27,East,90,4.0,4.0,82,0.00,,,0.00,meteohub,2013-05-19 14:22:00,
2013-05-19 07:27:00,43.7,38.3,30.27,East,90,4.0,4.0,81,0.00,,,0.00,meteohub,2013-05-19 14:27:00,
2013-05-19 07:32:00,44.8,38.7,30.27,East,90,5.0,5.0,79,0.00,,,0.00,meteohub,2013-05-19 14:32:00,
2013-05-19 07:37:00,45.9,39.4,30.27,East,90,5.0,5.0,78,0.00,,,0.00,meteohub,2013-05-19 14:37:00,
2013-05-19 07:42:00,46.9,39.7,30.27,NE,45,4.0,5.0,76,0.00,,,0.00,meteohub,2013-05-19 14:42:00,
2013-05-19 07:47:00,47.7,39.7,30.27,South,180,2.0,5.0,74,0.00,,,0.00,meteohub,2013-05-19 14:47:00,
2013-05-19 07:52:00,48.9,40.3,30.27,East,90,4.0,5.0,72,0.00,,,0.00,meteohub,2013-05-19 14:52:00,
2013-05-19 07:57:00,49.6,40.6,30.27,East,90,4.0,5.0,71,0.00,,,0.00,meteohub,2013-05-19 14:57:00,
2013-05-19 08:02:00,49.8,40.5,30.27,SW,225,2.0,4.0,70,0.00,,,0.00,meteohub,2013-05-19 15:02:00,
2013-05-19 08:07:00,50.2,39.6,30.27,SE,135,2.0,4.0,67,0.00,,,0.00,meteohub,2013-05-19 15:07:00,
2013-05-19 08:12:00,50.0,39.6,30.27,South,180,2.0,4.0,67,0.00,,,0.00,meteohub,2013-05-19 15:12:00,
2013-05-19 08:17:00,50.0,39.6,30.28,SE,135,1.0,4.0,67,0.00,,,0.00,meteohub,2013-05-19 15:17:00,
2013-05-19 08:22:00,50.4,39.7,30.28,SW,225,2.0,3.0,67,0.00,,,0.00,meteohub,2013-05-19 15:22:00,
2013-05-19 08:27:00,50.4,39.4,30.28,SE,135,2.0,3.0,66,0.00,,,0.00,meteohub,2013-05-19 15:27:00,
2013-05-19 08:33:00,50.5,39.6,30.27,SE,135,2.0,3.0,66,0.00,,,0.00,meteohub,2013-05-19 15:33:00,
2013-05-19 08:39:00,50.5,39.2,30.28,East,90,4.0,4.0,65,0.00,,,0.00,meteohub,2013-05-19 15:39:00,
2013-05-19 08:45:00,51.1,40.1,30.27,East,90,2.0,4.0,66,0.00,,,0.00,meteohub,2013-05-19 15:45:00,
2013-05-19 08:51:00,52.2,41.2,30.27,North,0,2.0,4.0,66,0.00,,,0.00,meteohub,2013-05-19 15:51:00,
2013-05-19 08:57:00,52.9,41.0,30.28,NW,315,3.0,3.0,64,0.00,,,0.00,meteohub,2013-05-19 15:57:00,
2013-05-19 09:02:00,53.2,41.0,30.27,South,180,3.0,3.0,63,0.00,,,0.00,meteohub,2013-05-19 16:02:00,
2013-05-19 09:07:00,53.4,41.2,30.28,SE,135,3.0,3.0,63,0.00,,,0.00,meteohub,2013-05-19 16:07:00,
2013-05-19 09:12:00,54.0,40.8,30.28,North,0,2.0,4.0,61,0.00,,,0.00,meteohub,2013-05-19 16:12:00,
2013-05-19 09:17:00,54.3,40.8,30.27,South,180,2.0,4.0,60,0.00,,,0.00,meteohub,2013-05-19 16:17:00,
2013-05-19 09:22:00,54.5,41.4,30.28,West,270,4.0,4.0,61,0.00,,,0.00,meteohub,2013-05-19 16:22:00,
2013-05-19 09:27:00,54.7,41.5,30.27,West,270,2.0,4.0,61,0.00,,,0.00,meteohub,2013-05-19 16:27:00,
2013-05-19 09:32:00,54.9,41.2,30.27,North,0,4.0,4.0,60,0.00,,,0.00,meteohub,2013-05-19 16:32:00,
2013-05-19 09:37:00,55.6,41.9,30.27,South,180,5.0,5.0,60,0.00,,,0.00,meteohub,2013-05-19 16:37:00,
2013-05-19 09:42:00,55.8,40.8,30.27,SE,135,2.0,7.0,57,0.00,,,0.00,meteohub,2013-05-19 16:42:00,
2013-05-19 09:47:00,57.0,42.8,30.27,West,270,4.0,7.0,59,0.00,,,0.00,meteohub,2013-05-19 16:47:00,
2013-05-19 09:52:00,57.6,41.0,30.27,West,270,2.0,7.0,54,0.00,,,0.00,meteohub,2013-05-19 16:52:00,
2013-05-19 09:57:00,57.9,40.8,30.27,NE,45,4.0,7.0,53,0.00,,,0.00,meteohub,2013-05-19 16:57:00,
2013-05-19 10:02:00,59.0,41.9,30.27,NW,315,4.0,7.0,53,0.00,,,0.00,meteohub,2013-05-19 17:02:00,
2013-05-19 10:07:00,59.2,40.6,30.26,East,90,4.0,6.0,50,0.00,,,0.00,meteohub,2013-05-19 17:07:00,
2013-05-19 10:12:00,58.1,40.1,30.27,SW,225,2.0,6.0,51,0.00,,,0.00,meteohub,2013-05-19 17:12:00,
2013-05-19 10:17:00,57.6,40.1,30.26,North,0,2.0,6.0,52,0.00,,,0.00,meteohub,2013-05-19 17:17:00,
2013-05-19 10:22:00,57.0,40.1,30.27,NW,315,4.0,6.0,53,0.00,,,0.00,meteohub,2013-05-19 17:22:00,
2013-05-19 10:27:00,56.7,40.3,30.27,North,0,3.0,6.0,54,0.00,,,0.00,meteohub,2013-05-19 17:27:00,
2013-05-19 10:32:00,57.9,41.4,30.27,West,270,6.0,6.0,54,0.00,,,0.00,meteohub,2013-05-19 17:32:00,
2013-05-19 10:37:00,57.6,40.6,30.27,SE,135,2.0,6.0,53,0.00,,,0.00,meteohub,2013-05-19 17:37:00,
2013-05-19 10:42:00,57.9,40.8,30.27,NW,315,4.0,6.0,53,0.00,,,0.00,meteohub,2013-05-19 17:42:00,
2013-05-19 10:47:00,59.0,41.4,30.27,East,90,2.0,6.0,52,0.00,,,0.00,meteohub,2013-05-19 17:47:00,
2013-05-19 10:52:00,59.9,42.3,30.27,SW,225,3.0,5.0,52,0.00,,,0.00,meteohub,2013-05-19 17:52:00,
2013-05-19 10:57:00,60.3,41.5,30.27,NW,315,5.0,5.0,50,0.00,,,0.00,meteohub,2013-05-19 17:57:00,
2013-05-19 11:02:00,60.1,41.4,30.27,East,90,3.0,8.0,50,0.00,,,0.00,meteohub,2013-05-19 18:02:00,
2013-05-19 11:07:00,59.7,41.0,30.27,NE,45,4.0,8.0,50,0.00,,,0.00,meteohub,2013-05-19 18:07:00,
2013-05-19 11:12:00,59.2,39.6,30.27,SW,225,6.0,8.0,48,0.00,,,0.00,meteohub,2013-05-19 18:12:00,
2013-05-19 11:17:00,57.9,39.9,30.27,NW,315,4.0,7.0,51,0.00,,,0.00,meteohub,2013-05-19 18:17:00,
2013-05-19 11:22:00,57.2,39.7,30.27,North,0,5.0,8.0,52,0.00,,,0.00,meteohub,2013-05-19 18:22:00,
2013-05-19 11:27:00,57.7,41.2,30.27,SE,135,3.0,8.0,54,0.00,,,0.00,meteohub,2013-05-19 18:27:00,
2013-05-19 11:32:00,59.0,41.4,30.26,NW,315,7.0,8.0,52,0.00,,,0.00,meteohub,2013-05-19 18:32:00,
2013-05-19 11:37:00,59.9,41.7,30.27,NE,45,8.0,8.0,51,0.00,,,0.00,meteohub,2013-05-19 18:37:00,
2013-05-19 11:42:00,59.7,41.0,30.26,East,90,3.0,8.0,50,0.00,,,0.00,meteohub,2013-05-19 18:42:00,
2013-05-19 11:47:00,60.6,41.9,30.26,SE,135,2.0,8.0,50,0.00,,,0.00,meteohub,2013-05-19 18:47:00,
2013-05-19 11:52:00,61.3,41.5,30.26,SW,225,1.0,8.0,48,0.00,,,0.00,meteohub,2013-05-19 18:52:00,
2013-05-19 11:57:00,62.1,41.0,30.26,East,90,8.0,8.0,46,0.00,,,0.00,meteohub,2013-05-19 18:57:00,
2013-05-19 12:02:00,61.7,40.6,30.26,North,0,3.0,8.0,46,0.00,,,0.00,meteohub,2013-05-19 19:02:00,
2013-05-19 12:07:00,62.4,41.9,30.25,NW,315,3.0,8.0,47,0.00,,,0.00,meteohub,2013-05-19 19:07:00,
2013-05-19 12:12:00,62.1,41.0,30.25,SW,225,2.0,8.0,46,0.00,,,0.00,meteohub,2013-05-19 19:12:00,
2013-05-19 12:17:00,62.8,42.3,30.25,SW,225,6.0,6.0,47,0.00,,,0.00,meteohub,2013-05-19 19:17:00,
2013-05-19 12:22:00,62.6,40.5,30.25,SW,225,4.0,6.0,44,0.00,,,0.00,meteohub,2013-05-19 19:22:00,
2013-05-19 12:27:00,63.1,42.1,30.25,NW,315,5.0,6.0,46,0.00,,,0.00,meteohub,2013-05-19 19:27:00,
2013-05-19 12:32:00,63.1,40.8,30.24,NW,315,2.0,6.0,44,0.00,,,0.00,meteohub,2013-05-19 19:32:00,
2013-05-19 12:37:00,64.2,40.1,30.24,North,0,8.0,8.0,41,0.00,,,0.00,meteohub,2013-05-19 19:37:00,
2013-05-19 12:42:00,64.9,40.6,30.24,NNE,23,8.0,8.0,41,0.00,,,0.00,meteohub,2013-05-19 19:42:00,
2013-05-19 12:47:00,65.1,41.5,30.24,NE,45,4.0,8.0,42,0.00,,,0.00,meteohub,2013-05-19 19:47:00,
2013-05-19 12:52:00,64.2,39.4,30.24,West,270,4.0,8.0,40,0.00,,,0.00,meteohub,2013-05-19 19:52:00,
2013-05-19 12:57:00,64.6,41.0,30.24,North,0,6.0,8.0,42,0.00,,,0.00,meteohub,2013-05-19 19:57:00,
2013-05-19 13:02:00,64.4,40.1,30.24,NW,315,3.0,8.0,41,0.00,,,0.00,meteohub,2013-05-19 20:02:00,
2013-05-19 13:07:00,64.6,41.0,30.24,South,180,3.0,8.0,42,0.00,,,0.00,meteohub,2013-05-19 20:07:00,
2013-05-19 13:12:00,65.3,40.3,30.24,SW,225,4.0,8.0,40,0.00,,,0.00,meteohub,2013-05-19 20:12:00,
2013-05-19 13:17:00,64.9,38.7,30.24,NE,45,7.0,7.0,38,0.00,,,0.00,meteohub,2013-05-19 20:17:00,
2013-05-19 13:22:00,64.6,39.0,30.24,NW,315,6.0,11.0,39,0.00,,,0.00,meteohub,2013-05-19 20:22:00,
2013-05-19 13:27:00,63.9,38.5,30.23,East,90,3.0,11.0,39,0.00,,,0.00,meteohub,2013-05-19 20:27:00,
2013-05-19 13:32:00,63.1,38.5,30.24,West,270,8.0,11.0,40,0.00,,,0.00,meteohub,2013-05-19 20:32:00,
2013-05-19 13:37:00,62.4,39.0,30.24,SE,135,3.0,12.0,42,0.00,,,0.00,meteohub,2013-05-19 20:37:00,
2013-05-19 13:42:00,63.3,39.9,30.23,NE,45,7.0,12.0,42,0.00,,,0.00,meteohub,2013-05-19 20:42:00,
2013-05-19 13:47:00,63.9,39.0,30.23,NE,45,7.0,12.0,40,0.00,,,0.00,meteohub,2013-05-19 20:47:00,
2013-05-19 13:52:00,63.7,37.6,30.23,SW,225,5.0,10.0,38,0.00,,,0.00,meteohub,2013-05-19 20:52:00,
2013-05-19 13:57:00,64.2,38.1,30.23,South,180,4.0,10.0,38,0.00,,,0.00,meteohub,2013-05-19 20:57:00,
2013-05-19 14:02:00,65.1,37.6,30.23,South,180,5.0,10.0,36,0.00,,,0.00,meteohub,2013-05-19 21:02:00,
2013-05-19 14:07:00,65.7,36.5,30.23,NW,315,8.0,10.0,34,0.00,,,0.00,meteohub,2013-05-19 21:07:00,
2013-05-19 14:12:00,65.5,37.0,30.23,North,0,5.0,11.0,35,0.00,,,0.00,meteohub,2013-05-19 21:12:00,
2013-05-19 14:17:00,66.7,36.7,30.23,NE,45,4.0,11.0,33,0.00,,,0.00,meteohub,2013-05-19 21:17:00,
2013-05-19 14:22:00,67.1,37.8,30.23,NW,315,7.0,11.0,34,0.00,,,0.00,meteohub,2013-05-19 21:22:00,
2013-05-19 14:27:00,66.4,37.2,30.23,North,0,3.0,8.0,34,0.00,,,0.00,meteohub,2013-05-19 21:27:00,
2013-05-19 14:32:00,67.5,37.4,30.23,North,0,2.0,8.0,33,0.00,,,0.00,meteohub,2013-05-19 21:32:00,
2013-05-19 14:37:00,67.6,39.0,30.22,South,180,6.0,8.0,35,0.00,,,0.00,meteohub,2013-05-19 21:37:00,
2013-05-19 14:42:00,67.8,39.9,30.22,North,0,8.0,8.0,36,0.00,,,0.00,meteohub,2013-05-19 21:42:00,
2013-05-19 14:47:00,67.5,40.3,30.23,North,0,8.0,12.0,37,0.00,,,0.00,meteohub,2013-05-19 21:47:00,
2013-05-19 14:52:00,67.8,38.5,30.22,North,0,11.0,12.0,34,0.00,,,0.00,meteohub,2013-05-19 21:52:00,
2013-05-19 14:57:00,67.5,38.8,30.22,NW,315,7.0,12.0,35,0.00,,,0.00,meteohub,2013-05-19 21:57:00,
2013-05-19 15:02:00,67.5,39.6,30.22,NW,315,8.0,11.0,36,0.00,,,0.00,meteohub,2013-05-19 22:02:00,
2013-05-19 15:07:00,67.5,40.3,30.22,East,90,4.0,11.0,37,0.00,,,0.00,meteohub,2013-05-19 22:07:00,
2013-05-19 15:12:00,67.6,38.3,30.22,North,0,8.0,8.0,34,0.00,,,0.00,meteohub,2013-05-19 22:12:00,
2013-05-19 15:17:00,67.1,37.0,30.22,SW,225,7.0,11.0,33,0.00,,,0.00,meteohub,2013-05-19 22:17:00,
2013-05-19 15:22:00,67.6,38.3,30.22,NW,315,3.0,11.0,34,0.00,,,0.00,meteohub,2013-05-19 22:22:00,
2013-05-19 15:27:00,67.8,38.5,30.22,South,180,2.0,11.0,34,0.00,,,0.00,meteohub,2013-05-19 22:27:00,
2013-05-19 15:32:00,67.3,37.9,30.22,NW,315,3.0,12.0,34,0.00,,,0.00,meteohub,2013-05-19 22:32:00,
2013-05-19 15:37:00,67.1,36.3,30.22,South,180,4.0,12.0,32,0.00,,,0.00,meteohub,2013-05-19 22:37:00,
2013-05-19 15:42:00,66.2,36.3,30.22,North,0,10.0,11.0,33,0.00,,,0.00,meteohub,2013-05-19 22:42:00,
2013-05-19 15:47:00,64.2,36.0,30.22,NE,45,8.0,11.0,35,0.00,,,0.00,meteohub,2013-05-19 22:47:00,
2013-05-19 15:52:00,64.0,36.5,30.22,South,180,4.0,11.0,36,0.00,,,0.00,meteohub,2013-05-19 22:52:00,
2013-05-19 15:57:00,64.2,37.4,30.22,NW,315,6.0,11.0,37,0.00,,,0.00,meteohub,2013-05-19 22:57:00,
2013-05-19 16:02:00,64.2,36.7,30.22,NE,45,2.0,9.0,36,0.00,,,0.00,meteohub,2013-05-19 23:02:00,
2013-05-19 16:07:00,64.9,37.4,30.22,NW,315,7.0,9.0,36,0.00,,,0.00,meteohub,2013-05-19 23:07:00,
2013-05-19 16:12:00,64.9,36.7,30.22,NW,315,8.0,11.0,35,0.00,,,0.00,meteohub,2013-05-19 23:12:00,
2013-05-19 16:17:00,64.2,37.4,30.22,North,0,7.0,11.0,37,0.00,,,0.00,meteohub,2013-05-19 23:17:00,
2013-05-19 16:22:00,63.9,37.8,30.22,NE,45,12.0,12.0,38,0.00,,,0.00,meteohub,2013-05-19 23:22:00,
2013-05-19 16:27:00,63.9,37.8,30.22,NW,315,4.0,12.0,38,0.00,,,0.00,meteohub,2013-05-19 23:27:00,
2013-05-19 16:32:00,64.0,37.9,30.22,NW,315,5.0,12.0,38,0.00,,,0.00,meteohub,2013-05-19 23:32:00,
2013-05-19 16:37:00,63.3,37.2,30.22,NW,315,4.0,12.0,38,0.00,,,0.00,meteohub,2013-05-19 23:37:00,
2013-05-19 16:42:00,63.7,37.6,30.22,North,0,2.0,11.0,38,0.00,,,0.00,meteohub,2013-05-19 23:42:00,
2013-05-19 16:47:00,64.0,37.9,30.22,SE,135,2.0,11.0,38,0.00,,,0.00,meteohub,2013-05-19 23:47:00,
2013-05-19 16:52:00,63.9,37.0,30.22,West,270,4.0,9.0,37,0.00,,,0.00,meteohub,2013-05-19 23:52:00,
2013-05-19 16:57:00,64.0,37.9,30.22,West,270,6.0,9.0,38,0.00,,,0.00,meteohub,2013-05-19 23:57:00,
2013-05-19 17:02:00,64.4,37.6,30.22,NW,315,7.0,9.0,37,0.00,,,0.00,meteohub,2013-05-20 00:02:00,
2013-05-19 17:07:00,64.9,37.4,30.22,NW,315,5.0,8.0,36,0.00,,,0.00,meteohub,2013-05-20 00:07:00,
2013-05-19 17:12:00,65.3,36.9,30.22,NW,315,4.0,11.0,35,0.00,,,0.00,meteohub,2013-05-20 00:12:00,
2013-05-19 17:17:00,65.8,36.7,30.22,NW,315,11.0,11.0,34,0.00,,,0.00,meteohub,2013-05-20 00:17:00,
2013-05-19 17:22:00,66.0,36.9,30.22,NW,315,7.0,11.0,34,0.00,,,0.00,meteohub,2013-05-20 00:22:00,
2013-05-19 17:27:00,66.4,36.3,30.22,NE,45,4.0,11.0,33,0.00,,,0.00,meteohub,2013-05-20 00:27:00,
2013-05-19 17:32:00,66.0,36.1,30.22,West,270,8.0,11.0,33,0.00,,,0.00,meteohub,2013-05-20 00:32:00,
2013-05-19 17:37:00,65.7,35.8,30.22,North,0,5.0,12.0,33,0.00,,,0.00,meteohub,2013-05-20 00:37:00,
2013-05-19 17:42:00,65.5,35.6,30.22,North,0,5.0,12.0,33,0.00,,,0.00,meteohub,2013-05-20 00:42:00,
2013-05-19 17:47:00,65.5,35.6,30.22,North,0,5.0,12.0,33,0.00,,,0.00,meteohub,2013-05-20 00:47:00,
2013-05-19 17:52:00,64.9,35.1,30.22,NW,315,8.0,11.0,33,0.00,,,0.00,meteohub,2013-05-20 00:52:00,
2013-05-19 17:57:00,64.4,34.7,30.22,West,270,4.0,11.0,33,0.00,,,0.00,meteohub,2013-05-20 00:57:00,
2013-05-19 18:02:00,63.9,33.4,30.21,WNW,293,11.0,11.0,32,0.00,,,0.00,meteohub,2013-05-20 01:02:00,
2013-05-19 18:07:00,63.5,33.8,30.22,NE,45,11.0,11.0,33,0.00,,,0.00,meteohub,2013-05-20 01:07:00,
2013-05-19 18:12:00,63.0,32.7,30.22,NW,315,8.0,11.0,32,0.00,,,0.00,meteohub,2013-05-20 01:12:00,
2013-05-19 18:17:00,62.8,33.3,30.22,North,0,6.0,11.0,33,0.00,,,0.00,meteohub,2013-05-20 01:17:00,
2013-05-19 18:22:00,62.4,33.6,30.22,North,0,6.0,11.0,34,0.00,,,0.00,meteohub,2013-05-20 01:22:00,
2013-05-19 18:27:00,62.2,33.4,30.22,NE,45,9.0,11.0,34,0.00,,,0.00,meteohub,2013-05-20 01:27:00,
2013-05-19 18:32:00,61.7,33.1,30.22,East,90,9.0,11.0,34,0.00,,,0.00,meteohub,2013-05-20 01:32:00,
2013-05-19 18:37:00,61.2,33.3,30.22,NW,315,8.0,11.0,35,0.00,,,0.00,meteohub,2013-05-20 01:37:00,
2013-05-19 18:42:00,60.8,33.6,30.22,NE,45,8.0,11.0,36,0.00,,,0.00,meteohub,2013-05-20 01:42:00,
2013-05-19 18:47:00,60.6,34.2,30.22,North,0,7.0,11.0,37,0.00,,,0.00,meteohub,2013-05-20 01:47:00,
2013-05-19 18:52:00,60.3,34.5,30.22,North,0,6.0,10.0,38,0.00,,,0.00,meteohub,2013-05-20 01:52:00,
2013-05-19 18:57:00,60.1,35.1,30.22,NW,315,4.0,10.0,39,0.00,,,0.00,meteohub,2013-05-20 01:57:00,
2013-05-19 19:02:00,59.9,34.9,30.22,NE,45,8.0,10.0,39,0.00,,,0.00,meteohub,2013-05-20 02:02:00,
2013-05-19 19:07:00,59.7,34.7,30.22,North,0,6.0,9.0,39,0.00,,,0.00,meteohub,2013-05-20 02:07:00,
2013-05-19 19:12:00,59.5,35.2,30.22,NW,315,10.0,10.0,40,0.00,,,0.00,meteohub,2013-05-20 02:12:00,
2013-05-19 19:17:00,59.2,34.9,30.23,NW,315,5.0,10.0,40,0.00,,,0.00,meteohub,2013-05-20 02:17:00,
2013-05-19 19:22:00,59.0,35.4,30.23,NW,315,4.0,10.0,41,0.00,,,0.00,meteohub,2013-05-20 02:22:00,
2013-05-19 19:27:00,58.8,35.8,30.23,North,0,7.0,10.0,42,0.00,,,0.00,meteohub,2013-05-20 02:27:00,
2013-05-19 19:32:00,58.5,35.4,30.23,NW,315,3.0,9.0,42,0.00,,,0.00,meteohub,2013-05-20 02:32:00,
2013-05-19 19:37:00,58.3,36.0,30.23,NW,315,8.0,9.0,43,0.00,,,0.00,meteohub,2013-05-20 02:37:00,
2013-05-19 19:42:00,57.9,35.6,30.23,NW,315,4.0,8.0,43,0.00,,,0.00,meteohub,2013-05-20 02:42:00,
2013-05-19 19:47:00,57.6,35.2,30.23,NW,315,5.0,8.0,43,0.00,,,0.00,meteohub,2013-05-20 02:47:00,
2013-05-19 19:52:00,57.4,35.6,30.23,North,0,2.0,9.0,44,0.00,,,0.00,meteohub,2013-05-20 02:52:00,
2013-05-19 19:57:00,57.0,36.0,30.24,North,0,4.0,9.0,45,0.00,,,0.00,meteohub,2013-05-20 02:57:00,
2013-05-19 20:02:00,56.7,34.3,30.23,NW,315,5.0,10.0,43,0.00,,,0.00,meteohub,2013-05-20 03:02:00,
2013-05-19 20:07:00,56.3,34.2,30.23,NE,45,4.0,10.0,43,0.00,,,0.00,meteohub,2013-05-20 03:07:00,
2013-05-19 20:12:00,55.9,34.3,30.23,NW,315,5.0,10.0,44,0.00,,,0.00,meteohub,2013-05-20 03:12:00,
2013-05-19 20:17:00,55.8,34.7,30.23,NW,315,3.0,6.0,45,0.00,,,0.00,meteohub,2013-05-20 03:17:00,
2013-05-19 20:22:00,55.4,34.9,30.23,NW,315,5.0,10.0,46,0.00,,,0.00,meteohub,2013-05-20 03:22:00,
2013-05-19 20:27:00,55.0,35.8,30.23,North,0,2.0,10.0,48,0.00,,,0.00,meteohub,2013-05-20 03:27:00,
2013-05-19 20:32:00,54.7,35.4,30.23,NE,45,2.0,8.0,48,0.00,,,0.00,meteohub,2013-05-20 03:32:00,
2013-05-19 20:37:00,54.3,35.1,30.23,North,0,2.0,6.0,48,0.00,,,0.00,meteohub,2013-05-20 03:37:00,
2013-05-19 20:42:00,54.0,35.2,30.23,NW,315,4.0,5.0,49,0.00,,,0.00,meteohub,2013-05-20 03:42:00,
2013-05-19 20:47:00,53.8,35.1,30.23,North,0,6.0,6.0,49,0.00,,,0.00,meteohub,2013-05-20 03:47:00,
2013-05-19 20:52:00,53.4,35.2,30.23,NW,315,2.0,8.0,50,0.00,,,0.00,meteohub,2013-05-20 03:52:00,
2013-05-19 20:57:00,53.2,35.6,30.23,NW,315,3.0,8.0,51,0.00,,,0.00,meteohub,2013-05-20 03:57:00,
2013-05-19 21:01:00,52.9,35.2,30.23,North,0,2.0,6.0,51,0.00,,,0.00,meteohub,2013-05-20 04:01:00,
2013-05-19 21:02:00,52.9,35.2,30.23,North,0,2.0,6.0,51,0.00,,,0.00,meteohub,2013-05-20 04:02:00,
2013-05-19 21:05:00,52.7,35.1,30.24,NE,45,2.0,7.0,51,0.00,,,0.00,meteohub,2013-05-20 04:05:00,
2013-05-19 21:07:00,52.7,35.1,30.23,SW,225,2.0,7.0,51,0.00,,,0.00,meteohub,2013-05-20 04:07:00,
2013-05-19 21:12:00,52.3,35.2,30.24,WNW,293,5.0,7.0,52,0.00,,,0.00,meteohub,2013-05-20 04:12:00,
2013-05-19 21:15:00,52.2,35.1,30.24,NW,315,4.0,7.0,52,0.00,,,0.00,meteohub,2013-05-20 04:15:00,
2013-05-19 21:21:00,52.0,35.8,30.25,East,90,3.0,6.0,54,0.00,,,0.00,meteohub,2013-05-20 04:21:00,
2013-05-19 21:27:00,51.6,36.5,30.25,NW,315,2.0,5.0,56,0.00,,,0.00,meteohub,2013-05-20 04:27:00,
2013-05-19 21:32:00,51.6,36.5,30.25,SW,225,2.0,5.0,56,0.00,,,0.00,meteohub,2013-05-20 04:32:00,
2013-05-19 21:37:00,50.7,36.0,30.25,South,180,2.0,5.0,57,0.00,,,0.00,meteohub,2013-05-20 04:37:00,
2013-05-19 21:42:00,50.0,36.3,30.25,West,270,1.0,3.0,59,0.00,,,0.00,meteohub,2013-05-20 04:42:00,
2013-05-19 21:47:00,49.5,36.5,30.25,West,270,2.0,3.0,61,0.00,,,0.00,meteohub,2013-05-20 04:47:00,
2013-05-19 21:52:00,49.1,36.7,30.25,South,180,2.0,2.0,62,0.00,,,0.00,meteohub,2013-05-20 04:52:00,
2013-05-19 21:57:00,48.7,36.3,30.25,NW,315,2.0,2.0,62,0.00,,,0.00,meteohub,2013-05-20 04:57:00,
2013-05-19 22:02:00,48.7,36.7,30.25,SW,225,2.0,4.0,63,0.00,,,0.00,meteohub,2013-05-20 05:02:00,
2013-05-19 22:07:00,48.6,36.9,30.25,SW,225,2.0,4.0,64,0.00,,,0.00,meteohub,2013-05-20 05:07:00,
2013-05-19 22:12:00,48.4,36.3,30.25,South,180,2.0,4.0,63,0.00,,,0.00,meteohub,2013-05-20 05:12:00,
2013-05-19 22:17:00,47.8,36.7,30.25,NW,315,1.0,3.0,65,0.00,,,0.00,meteohub,2013-05-20 05:17:00,
2013-05-19 22:22:00,47.7,36.5,30.25,West,270,1.0,3.0,65,0.00,,,0.00,meteohub,2013-05-20 05:22:00,
2013-05-19 22:27:00,47.5,36.3,30.25,South,180,2.0,2.0,65,0.00,,,0.00,meteohub,2013-05-20 05:27:00,
2013-05-19 22:32:00,47.3,36.5,30.25,SW,225,1.0,2.0,66,0.00,,,0.00,meteohub,2013-05-20 05:32:00,
2013-05-19 22:37:00,46.9,36.1,30.25,SW,225,1.0,2.0,66,0.00,,,0.00,meteohub,2013-05-20 05:37:00,
2013-05-19 22:42:00,46.6,35.8,30.25,NW,315,2.0,2.0,66,0.00,,,0.00,meteohub,2013-05-20 05:42:00,
2013-05-19 22:47:00,46.4,36.0,30.25,North,0,1.0,2.0,67,0.00,,,0.00,meteohub,2013-05-20 05:47:00,
2013-05-19 22:52:00,46.0,36.1,30.25,SW,225,0.0,2.0,68,0.00,,,0.00,meteohub,2013-05-20 05:52:00,
2013-05-19 22:57:00,45.9,36.0,30.25,SW,225,1.0,2.0,68,0.00,,,0.00,meteohub,2013-05-20 05:57:00,
2013-05-19 23:02:00,45.3,35.4,30.25,SW,225,0.0,2.0,68,0.00,,,0.00,meteohub,2013-05-20 06:02:00,
2013-05-19 23:07:00,45.1,35.6,30.25,NW,315,1.0,1.0,69,0.00,,,0.00,meteohub,2013-05-20 06:07:00,
2013-05-19 23:12:00,44.8,35.2,30.25,SE,135,1.0,1.0,69,0.00,,,0.00,meteohub,2013-05-20 06:12:00,
2013-05-19 23:17:00,44.6,35.4,30.25,South,180,1.0,2.0,70,0.00,,,0.00,meteohub,2013-05-20 06:17:00,
2013-05-19 23:22:00,44.4,35.6,30.25,SW,225,0.0,2.0,71,0.00,,,0.00,meteohub,2013-05-20 06:22:00,
2013-05-19 23:27:00,44.2,35.8,30.25,SW,225,0.0,2.0,72,0.00,,,0.00,meteohub,2013-05-20 06:27:00,
2013-05-19 23:32:00,44.1,35.6,30.25,SW,225,2.0,2.0,72,0.00,,,0.00,meteohub,2013-05-20 06:32:00,
2013-05-19 23:37:00,43.9,35.8,30.25,SW,225,0.0,2.0,73,0.00,,,0.00,meteohub,2013-05-20 06:37:00,
2013-05-19 23:42:00,43.7,35.6,30.25,South,180,2.0,2.0,73,0.00,,,0.00,meteohub,2013-05-20 06:42:00,
2013-05-19 23:47:00,43.5,35.8,30.25,South,180,2.0,2.0,74,0.00,,,0.00,meteohub,2013-05-20 06:47:00,
2013-05-19 23:52:00,43.5,35.8,30.25,South,180,2.0,2.0,74,0.00,,,0.00,meteohub,2013-05-20 06:52:00,
2013-05-19 23:57:00,43.5,36.1,30.25,South,180,1.0,2.0,75,0.00,,,0.00,meteohub,2013-05-20 06:57:00,